Weather History for St. Augustine, FL

Change the Weather History Date:

Monday, July 14, 2014

  Actual Average Record
Temperature  
Mean Temperature 84 °F -  
Max Temperature 97 °F 86 °F 100 °F (1980)
Min Temperature 72 °F 71 °F 66 °F (1989)
Cooling Degree Days 19    
Growing Degree Days 34 (Base 50)    
Moisture  
Dew Point 72 °F    
Average Humidity 78    
Maximum Humidity 94    
Minimum Humidity 44    
Precipitation  
Precipitation 0.91 in - - ()
Sea Level Pressure  
Sea Level Pressure 30.07 in    
Wind  
Wind Speed 5 mph (South)    
Max Wind Speed 15 mph    
Max Gust Speed 20 mph    
Visibility 9 miles    
Events Rain , Thunderstorm    
Averages and records for this station are not official NWS values.
T = Trace of Precipitation, MM = Missing Value Source: NWS Daily Summary

Daily Weather History Graph

Daily Weather History Graph

Search for Another Location

Airport:

Trip Planner

Search our weather history database for the weather conditions in past years. The results will help you decide how hot, cold, wet, or windy it might be!

Date:

Astronomy

Jul. 14, 2014 Rise Set
Actual Time 6:34 AM EDT 8:28 PM EDT
Civil Twilight 6:07 AM EDT 8:55 PM EDT
Nautical Twilight 5:34 AM EDT 9:27 PM EDT
Astronomical Twilight 5:00 AM EDT 10:01 PM EDT
Moon 10:13 PM EDT (7/14) 9:00 AM EDT (7/14)
Length of Visible Light 14h 47m
Length of Day
13h 54m
Waning Gibbous, 93% of the Moon is Illuminated
Jul 14
Waning Gibbous
Jul 18
Last Quarter
Jul 26
New
Aug 3
First Quarter
Aug 10
Full

Hourly Weather History & Observations

Time (EDT) Temp. Heat Index Dew Point Humidity Pressure Visibility Wind Dir Wind Speed Gust Speed Precip Events Conditions
12:58 AM 77.0 °F - 73.9 °F 90% 30.10 in 10.0 mi Calm Calm - N/A   Clear
1:58 AM 75.9 °F - 73.0 °F 91% 30.09 in 10.0 mi Calm Calm - N/A   Clear
2:58 AM 75.9 °F - 73.0 °F 91% 30.09 in 10.0 mi Calm Calm - N/A   Clear
3:58 AM 75.9 °F - 73.9 °F 94% 30.09 in 10.0 mi SW 3.5 mph - N/A   Clear
4:58 AM 75.0 °F - 73.0 °F 94% 30.08 in 10.0 mi SSW 3.5 mph - N/A   Clear
5:58 AM 75.9 °F - 73.0 °F 91% 30.08 in 10.0 mi SSW 3.5 mph - N/A   Clear
6:58 AM 75.9 °F - 73.0 °F 91% 30.09 in 10.0 mi SSW 3.5 mph - N/A   Clear
7:58 AM 78.1 °F - 75.0 °F 90% 30.11 in 10.0 mi SSW 5.8 mph - N/A   Clear
8:58 AM 82.0 °F 89.4 °F 75.9 °F 82% 30.11 in 10.0 mi SW 10.4 mph - N/A   Clear
9:58 AM 84.9 °F 94.1 °F 75.9 °F 74% 30.11 in 10.0 mi SW 8.1 mph - N/A   Partly Cloudy
10:58 AM 87.1 °F 96.3 °F 75.0 °F 67% 30.10 in 8.0 mi SSW 9.2 mph - N/A   Scattered Clouds
11:13 AM 89.6 °F 98.2 °F 73.4 °F 59% 30.10 in 10.0 mi West 8.1 mph - N/A   Mostly Cloudy
11:56 AM 89.6 °F 98.2 °F 73.4 °F 59% 30.10 in 10.0 mi South 3.5 mph - N/A   Mostly Cloudy
12:58 PM 96.1 °F 103.5 °F 71.1 °F 44% 30.09 in 10.0 mi Calm Calm - N/A   Mostly Cloudy
1:21 PM 96.8 °F 109.6 °F 75.2 °F 50% 30.08 in 10.0 mi East 12.7 mph - N/A   Mostly Cloudy
1:58 PM 91.9 °F 103.9 °F 75.9 °F 59% 30.07 in 10.0 mi ESE 11.5 mph - N/A   Mostly Cloudy
2:02 PM 91.4 °F 102.5 °F 75.2 °F 59% 30.07 in 10.0 mi East 9.2 mph - N/A   Scattered Clouds
2:07 PM 91.4 °F 102.5 °F 75.2 °F 59% 30.07 in 7.0 mi East 10.4 mph - N/A   Mostly Cloudy
2:58 PM 91.0 °F 101.6 °F 75.0 °F 59% 30.05 in 10.0 mi ESE 15.0 mph - N/A   Scattered Clouds
3:57 PM 87.1 °F 96.3 °F 75.0 °F 67% 30.03 in 10.0 mi SE 13.8 mph - N/A Thunderstorm Partly Cloudy
4:27 PM 77.0 °F - 69.8 °F 78% 30.10 in 2.0 mi West 11.5 mph 19.6 mph 0.03 in Rain , Thunderstorm Thunderstorms and Rain
4:58 PM 73.0 °F - 68.0 °F 84% 30.07 in 2.0 mi SSE 4.6 mph - 0.79 in Rain , Thunderstorm Heavy Thunderstorms and Rain
5:44 PM 73.4 °F - 68.0 °F 83% 30.04 in 5.0 mi South 4.6 mph - 0.06 in Thunderstorm Haze
5:58 PM 73.0 °F - 69.1 °F 87% 30.05 in 5.0 mi SW 5.8 mph - 0.06 in Thunderstorm Mostly Cloudy
6:18 PM 73.4 °F - 69.8 °F 88% 30.05 in 10.0 mi South 11.5 mph - 0.01 in Rain Rain
6:58 PM 73.0 °F - 69.1 °F 87% 30.04 in 10.0 mi South 9.2 mph - 0.04 in Rain Light Rain
7:58 PM 73.0 °F - 70.0 °F 90% 30.04 in 10.0 mi South 11.5 mph - 0.02 in Rain Light Rain
8:58 PM 73.0 °F - 69.1 °F 87% 30.03 in 10.0 mi SSW 9.2 mph - 0.00 in   Clear
10:58 PM 72.0 °F - 69.1 °F 91% 30.03 in 10.0 mi SW 6.9 mph - N/A   Clear
11:58 PM 72.0 °F - 68.0 °F 87% 30.04 in 10.0 mi SSW 6.9 mph - N/A   Clear